This is the latest recevied weather packets stored in our database for station/object OE6PLD-13. If no packets are shown the sender has not sent any weather packets the latest 10 day(s).
| Time | Temp. | Humidity | Pressure | Rain* | Wind** | Luminosity | Snow |
|---|---|---|---|---|---|---|---|
| 1777539783 | 11.11° C | 34% | 1019.2 hPa | 0.76 mm | - | 647 W/m² | - |
| 1777539599 | 11.11° C | 34% | 1019.1 hPa | 0.76 mm | - | 661 W/m² | - |
| 1777539416 | 10.56° C | 35% | 1019.1 hPa | 0.76 mm | - | 688 W/m² | - |
| 1777539233 | 10.56° C | 35% | 1019.1 hPa | 0.76 mm | - | 689 W/m² | - |
| 1777539049 | 11.11° C | 34% | 1019.1 hPa | 0.76 mm | - | 694 W/m² | - |
| 1777538866 | 11.11° C | 32% | 1019.2 hPa | 0.76 mm | - | 707 W/m² | - |
| 1777538682 | 10.56° C | 33% | 1019.2 hPa | 0.76 mm | - | 722 W/m² | - |
| 1777538499 | 10.56° C | 34% | 1019.1 hPa | 0.76 mm | - | 733 W/m² | - |
| 1777538316 | 11.11° C | 35% | 1019.2 hPa | 0.76 mm | - | 726 W/m² | - |
| 1777538132 | 10.56° C | 34% | 1019.1 hPa | 0.76 mm | - | 712 W/m² | - |
| 1777537949 | 10.56° C | 35% | 1019.3 hPa | 0.76 mm | - | 713 W/m² | - |
| 1777537766 | 10.56° C | 35% | 1019.2 hPa | 0.76 mm | - | 705 W/m² | - |
| 1777537582 | 10.56° C | 34% | 1019.3 hPa | 0.76 mm | - | 696 W/m² | - |
| 1777537399 | 10.56° C | 34% | 1019.5 hPa | 0.76 mm | - | 694 W/m² | - |
| 1777537216 | 10.56° C | 34% | 1019.2 hPa | 0.76 mm | - | 732 W/m² | - |
| 1777537032 | 10.56° C | 36% | 1019.1 hPa | 0.76 mm | - | 750 W/m² | - |
| 1777536849 | 10° C | 35% | 1019.3 hPa | 0.76 mm | - | 747 W/m² | - |
| 1777536666 | 10° C | 35% | 1019.3 hPa | 0.76 mm | - | 727 W/m² | - |
| 1777536482 | 10.56° C | 33% | 1019.4 hPa | 0.76 mm | - | 694 W/m² | - |
| 1777536299 | 10.56° C | 34% | 1019.4 hPa | 0.76 mm | - | 660 W/m² | - |
| 1777536116 | 10° C | 35% | 1019.4 hPa | 0.76 mm | - | 635 W/m² | - |
| 1777535932 | 10° C | 35% | 1019.4 hPa | 0.76 mm | - | 617 W/m² | - |
| 1777535749 | 10° C | 34% | 1019.5 hPa | 0.76 mm | - | 615 W/m² | - |
| 1777535566 | 10° C | 34% | 1019.6 hPa | 0.76 mm | - | 604 W/m² | - |
| 1777535382 | 10° C | 33% | 1019.4 hPa | 0.76 mm | - | 561 W/m² | - |
* Rain latest hour (hover to see other rain measurements)
** Current wind speed in m/s (hover to see current wind gust speed)